CZ-4C R/B (47304 NORAD) Tracking and Keplerian Element Data
This shows tracking and keplerian element data for the satellite.
Feedback or suggestion? Click here.
Element | Value |
Catalog | 47304 |
Name | CZ-4C R/B |
Epoch Orbit | 364 |
Epoch Day | 21.15973439 |
Epoch Year | 2021 |
RAAN | 272.3838 |
Inclination | 98.3197 |
Eccentricity | 0.0115888 |
Argument of Perigee | 325.4004 |
Mean Anonmoly | 33.9708 |
Mean Motion | 14.89138108 |
Decay Rate | 1.45E-06 |
L1 | 1 47304U 20103C 21021.15973439 .00000145 00000-0 20437-4 0 9991 |
L2 | 2 47304 98.3197 272.3838 0115888 325.4004 33.9708 14.89138108 3645 |
Live tracking and technical data element details for CZ-4C R/B (NORAD 47304). CZ-4C R/B can be tracked NOW for your location showing map with azimuth and elevation plus other details from your city location.
Track the satellite on the map from your city or location and see movement details for azimuth, elevation, latitude, longitude, range, height, and movement on the map or in text.
IsCatalogInMostPopularTable: catalog: 47304, numindb: 11
Update: records affected: 1
GetName: 47304 CZ-4C R/B
Hit Count: updated at: Sat, 23 Jan 2021 16:42:43 GMT